Tracking 18987 objects as of 25-Feb-2018
HD Live streaming from Space Station
objects crossing your sky now

SL-12 DEB

Track SL-12 DEB now!
10-day predictions


NORAD ID: 39798
Int'l Code: 2008-046K
Perigee: 655.3 km
Apogee: 18,901.7 km
Inclination: 64.8 °
Period: 340.4 minutes
Semi major axis: 16149 km
RCS: 0.0315 m2 (small)
Launch date: September 25, 2008
Source: Commonwealth of Independent States (former USSR) (CIS)
Launch site: TYURATAM MISSILE AND SPACE COMPLEX (TTMTR)

Note: This is SATELLITE DEBRIS
aabbcc
Your satellite tracking list
Your tracking list is empty




NASA's NSSDC Master Catalog

Two Line Element Set (TLE):
1 39798U 08046K   18055.10112815 +.00000007 +00000-0 -22922-4 0  9991
2 39798 064.8126 041.5066 5649239 042.2218 349.6583 04.23023179057814
Source of the keplerian elements: AFSPC